DWI209 KEWR-MDSD

Flight info

Callsign DWI209
Flight time 3h 23m
Altitude 37000
Route ELVAE DCT NECCK DCT DIXIE Y481 OHRYN/N0453F360 Y488 WEBBB/M078F360 Y488 HOBOH/M078F370 Y488 CHUBY/M078F360 Y488 SAUCR/M078F370 L453 LAMER/N0454F370 L453 RODRK/N0450F380 DCT POKEG UT17 KOBET
Aircraft B738/M-SDE2E3FGHIRWXY/LB1

Departure

Time 2026-05-08 18:11
Airport Newark Liberty International Airport (KEWR)

Arrival

Time 2026-05-08 21:35
Airport Las Américas International Airport (MDSD)
Time Latitude Longitude Altitude Speed Heading
2026-05-08 17:21 40.68993 -74.17471 23 ft 0 kts 285°
2026-05-08 17:56 40.68992 -74.17466 21 ft 2 kts 284°
2026-05-08 17:56 40.68989 -74.17442 21 ft 3 kts 280°
2026-05-08 17:56 40.68983 -74.17418 27 ft 3 kts 295°
2026-05-08 17:57 40.68974 -74.17394 22 ft 3 kts 295°
2026-05-08 17:57 40.68965 -74.17369 23 ft 3 kts 295°
2026-05-08 17:57 40.68959 -74.17353 23 ft 1 kts 295°
2026-05-08 17:57 40.68952 -74.17336 23 ft 3 kts 319°
2026-05-08 17:58 40.68940 -74.17327 23 ft 3 kts 24°
2026-05-08 17:58 40.68924 -74.17341 23 ft 3 kts 37°
2026-05-08 17:58 40.68911 -74.17353 23 ft 1 kts 26°
2026-05-08 17:58 40.68907 -74.17355 21 ft 0 kts 26°
2026-05-08 18:01 40.68924 -74.17345 21 ft 7 kts 27°
2026-05-08 18:02 40.68977 -74.17310 22 ft 9 kts 25°
2026-05-08 18:02 40.69016 -74.17287 21 ft 9 kts 24°
2026-05-08 18:02 40.69091 -74.17241 21 ft 9 kts 25°
2026-05-08 18:02 40.69145 -74.17207 21 ft 8 kts 26°
2026-05-08 18:03 40.69196 -74.17172 21 ft 8 kts 26°
2026-05-08 18:03 40.69247 -74.17140 21 ft 8 kts 26°
2026-05-08 18:03 40.69296 -74.17108 22 ft 8 kts 25°
2026-05-08 18:03 40.69344 -74.17079 21 ft 7 kts 25°
2026-05-08 18:04 40.69361 -74.17068 21 ft 0 kts 25°
2026-05-08 18:04 40.69388 -74.17066 21 ft 8 kts 359°
2026-05-08 18:05 40.69448 -74.17069 21 ft 9 kts 357°
2026-05-08 18:05 40.69506 -74.17077 21 ft 8 kts 352°
2026-05-08 18:05 40.69561 -74.17092 21 ft 8 kts 345°
2026-05-08 18:05 40.69603 -74.17058 23 ft 8 kts 65°
2026-05-08 18:06 40.69621 -74.16992 21 ft 8 kts 70°
2026-05-08 18:06 40.69640 -74.16928 21 ft 7 kts 70°
2026-05-08 18:06 40.69656 -74.16866 21 ft 7 kts 71°
2026-05-08 18:06 40.69672 -74.16806 23 ft 7 kts 71°
2026-05-08 18:07 40.69690 -74.16748 22 ft 7 kts 53°
2026-05-08 18:07 40.69729 -74.16713 21 ft 7 kts 27°
2026-05-08 18:07 40.69770 -74.16686 20 ft 7 kts 26°
2026-05-08 18:07 40.69810 -74.16661 20 ft 6 kts 25°
2026-05-08 18:08 40.69850 -74.16636 20 ft 6 kts 24°
2026-05-08 18:08 40.69889 -74.16611 20 ft 6 kts 27°
2026-05-08 18:08 40.69927 -74.16587 20 ft 6 kts 25°
2026-05-08 18:08 40.69964 -74.16564 20 ft 6 kts 25°
2026-05-08 18:09 40.70002 -74.16541 20 ft 6 kts 25°
2026-05-08 18:09 40.70038 -74.16517 20 ft 6 kts 27°
2026-05-08 18:09 40.70067 -74.16484 21 ft 6 kts 78°
2026-05-08 18:09 40.70066 -74.16430 19 ft 6 kts 92°
2026-05-08 18:10 40.70057 -74.16378 20 ft 6 kts 135°
2026-05-08 18:10 40.70016 -74.16373 18 ft 6 kts 197°
2026-05-08 18:10 40.69883 -74.16461 19 ft 57 kts 206°
2026-05-08 18:10 40.69265 -74.16846 22 ft 137 kts 206°
2026-05-08 18:11 40.68225 -74.17482 223 ft 190 kts 208°
2026-05-08 18:11 40.67013 -74.18173 1350 ft 190 kts 202°
2026-05-08 18:11 40.65642 -74.18264 2314 ft 211 kts 174°
2026-05-08 18:11 40.64215 -74.18003 3336 ft 199 kts 189°
2026-05-08 18:12 40.62962 -74.18492 4318 ft 185 kts 222°
2026-05-08 18:12 40.61967 -74.19548 5173 ft 186 kts 225°
2026-05-08 18:12 40.60915 -74.20702 5671 ft 205 kts 225°
2026-05-08 18:12 40.59759 -74.21974 5984 ft 224 kts 225°
2026-05-08 18:13 40.56315 -74.25720 5995 ft 223 kts 225°
2026-05-08 18:13 40.54991 -74.26843 6000 ft 236 kts 204°
2026-05-08 18:13 40.53298 -74.26940 6024 ft 254 kts 175°
2026-05-08 18:13 40.48748 -74.24823 7000 ft 268 kts 165°
2026-05-08 18:14 40.44145 -74.22439 8449 ft 270 kts 165°
2026-05-08 18:14 40.37010 -74.18866 10474 ft 280 kts 166°
2026-05-08 18:14 40.32014 -74.16422 11557 ft 290 kts 170°
2026-05-08 18:14 40.30038 -74.15971 11951 ft 284 kts 186°
2026-05-08 18:15 40.20154 -74.16206 13951 ft 298 kts 191°
2026-05-08 18:15 40.14525 -74.16310 15094 ft 300 kts 191°
2026-05-08 18:15 40.12070 -74.16079 15541 ft 317 kts 171°
2026-05-08 18:15 40.10110 -74.14611 15914 ft 338 kts 140°
2026-05-08 18:16 40.08825 -74.12019 16279 ft 346 kts 109°
2026-05-08 18:16 40.08151 -74.08999 16672 ft 348 kts 103°
2026-05-08 18:16 40.07574 -74.05911 16977 ft 352 kts 102°
2026-05-08 18:16 40.06542 -74.00218 17024 ft 365 kts 103°
2026-05-08 18:17 40.05021 -73.92255 17307 ft 364 kts 104°
2026-05-08 18:17 40.02457 -73.79503 18791 ft 364 kts 105°
2026-05-08 18:17 39.99842 -73.66762 19881 ft 372 kts 105°
2026-05-08 18:17 39.98802 -73.61721 20256 ft 376 kts 105°
2026-05-08 18:18 39.96053 -73.48414 21312 ft 382 kts 105°
2026-05-08 18:18 39.94930 -73.43003 21701 ft 386 kts 105°
2026-05-08 18:18 39.94226 -73.39627 21933 ft 388 kts 105°
2026-05-08 18:18 39.93517 -73.36229 22175 ft 389 kts 105°
2026-05-08 18:19 39.92804 -73.32816 22406 ft 391 kts 105°
2026-05-08 18:19 39.92088 -73.29392 22644 ft 393 kts 105°
2026-05-08 18:19 39.91367 -73.25949 22838 ft 395 kts 105°
2026-05-08 18:19 39.90640 -73.22483 22999 ft 398 kts 105°
2026-05-08 18:20 39.89915 -73.19029 22991 ft 401 kts 105°
2026-05-08 18:20 39.89178 -73.15521 22992 ft 400 kts 105°
2026-05-08 18:20 39.88446 -73.12046 22957 ft 397 kts 106°
2026-05-08 18:20 39.87714 -73.08575 22994 ft 398 kts 106°
2026-05-08 18:21 39.86977 -73.05091 23005 ft 400 kts 106°
2026-05-08 18:21 39.86234 -73.01579 23013 ft 402 kts 106°
2026-05-08 18:21 39.85488 -72.98063 23004 ft 404 kts 106°
2026-05-08 18:21 39.84738 -72.94532 23008 ft 405 kts 106°
2026-05-08 18:22 39.83985 -72.90989 23007 ft 405 kts 106°
2026-05-08 18:22 39.83232 -72.87457 23007 ft 405 kts 106°
2026-05-08 18:22 39.82480 -72.83928 23000 ft 405 kts 106°
2026-05-08 18:22 39.81669 -72.80471 23002 ft 404 kts 110°
2026-05-08 18:23 39.80756 -72.77015 23002 ft 403 kts 111°
2026-05-08 18:23 39.79816 -72.73594 23002 ft 401 kts 111°
2026-05-08 18:23 39.78874 -72.70182 22998 ft 400 kts 111°
2026-05-08 18:23 39.77939 -72.66769 22998 ft 400 kts 111°
2026-05-08 18:24 39.77011 -72.63362 23003 ft 399 kts 111°
2026-05-08 18:24 39.76092 -72.59967 22992 ft 398 kts 111°
2026-05-08 18:24 39.75177 -72.56579 22994 ft 397 kts 111°
2026-05-08 18:24 39.74261 -72.53188 23007 ft 397 kts 111°
2026-05-08 18:25 39.73345 -72.49803 23007 ft 396 kts 111°
2026-05-08 18:25 39.72430 -72.46423 23009 ft 396 kts 111°
2026-05-08 18:25 39.71515 -72.43049 23005 ft 396 kts 111°
2026-05-08 18:25 39.70591 -72.39673 23012 ft 397 kts 112°
2026-05-08 18:26 39.69664 -72.36337 23019 ft 399 kts 112°
2026-05-08 18:26 39.68716 -72.32946 23015 ft 400 kts 112°
2026-05-08 18:26 39.67766 -72.29547 23017 ft 401 kts 112°
2026-05-08 18:26 39.66816 -72.26144 23010 ft 401 kts 112°
2026-05-08 18:27 39.65862 -72.22740 23005 ft 401 kts 113°
2026-05-08 18:27 39.65101 -72.20518 22995 ft 398 kts 122°
2026-05-08 18:27 39.63083 -72.16605 23004 ft 389 kts 138°
2026-05-08 18:27 39.61270 -72.14026 23022 ft 386 kts 140°
2026-05-08 18:28 39.59429 -72.11491 23013 ft 386 kts 141°
2026-05-08 18:28 39.57582 -72.08963 23003 ft 386 kts 140°
2026-05-08 18:28 39.55740 -72.06433 23006 ft 386 kts 140°
2026-05-08 18:28 39.53897 -72.03890 23013 ft 385 kts 140°
2026-05-08 18:29 39.52068 -72.01355 23005 ft 385 kts 140°
2026-05-08 18:29 39.50241 -71.98817 23008 ft 385 kts 140°
2026-05-08 18:29 39.48419 -71.96284 22982 ft 384 kts 140°
2026-05-08 18:29 39.46602 -71.93756 23007 ft 383 kts 140°
2026-05-08 18:30 39.44812 -71.91269 23005 ft 382 kts 140°
2026-05-08 18:30 39.43004 -71.88757 23003 ft 381 kts 140°
2026-05-08 18:30 39.41194 -71.86247 23008 ft 381 kts 140°
2026-05-08 18:30 39.39387 -71.83743 23018 ft 382 kts 140°
2026-05-08 18:31 39.37557 -71.81212 23166 ft 386 kts 140°
2026-05-08 18:31 39.35720 -71.78673 23443 ft 388 kts 140°
2026-05-08 18:31 39.33872 -71.76118 23841 ft 389 kts 140°
2026-05-08 18:31 39.32031 -71.73571 24352 ft 387 kts 140°
2026-05-08 18:32 39.30197 -71.71036 24768 ft 387 kts 140°
2026-05-08 18:32 39.28348 -71.68488 25123 ft 390 kts 140°
2026-05-08 18:32 39.26482 -71.65918 25477 ft 392 kts 140°
2026-05-08 18:32 39.24612 -71.63342 25846 ft 394 kts 140°
2026-05-08 18:33 39.22733 -71.60757 26225 ft 395 kts 141°
2026-05-08 18:33 39.20682 -71.58492 26578 ft 380 kts 160°
2026-05-08 18:33 39.18338 -71.57158 27029 ft 359 kts 176°
2026-05-08 18:33 39.15950 -71.56625 27473 ft 340 kts 188°
2026-05-08 18:34 39.13594 -71.56464 27873 ft 338 kts 189°
2026-05-08 18:34 39.11245 -71.56349 28255 ft 337 kts 190°
2026-05-08 18:34 39.08903 -71.56236 28677 ft 336 kts 190°
2026-05-08 18:34 39.06571 -71.56115 29090 ft 335 kts 190°
2026-05-08 18:35 39.04242 -71.55985 29458 ft 335 kts 189°
2026-05-08 18:35 39.01912 -71.55848 29824 ft 334 kts 189°
2026-05-08 18:35 38.99635 -71.55710 30172 ft 333 kts 189°
2026-05-08 18:35 38.97321 -71.55567 30420 ft 333 kts 190°
2026-05-08 18:36 38.95001 -71.55424 30684 ft 333 kts 190°
2026-05-08 18:36 38.92693 -71.55280 30964 ft 332 kts 191°
2026-05-08 18:36 38.90384 -71.55136 31225 ft 331 kts 191°
2026-05-08 18:36 38.88079 -71.54994 31406 ft 334 kts 191°
2026-05-08 18:37 38.85715 -71.54856 31344 ft 345 kts 191°
2026-05-08 18:37 38.83290 -71.54710 31360 ft 353 kts 190°
2026-05-08 18:37 38.78266 -71.54410 31353 ft 370 kts 190°
2026-05-08 18:38 38.73016 -71.54113 31334 ft 385 kts 191°
2026-05-08 18:38 38.67552 -71.53803 31351 ft 400 kts 190°
2026-05-08 18:39 38.61931 -71.53478 31349 ft 413 kts 189°
2026-05-08 18:39 38.56146 -71.53425 31328 ft 411 kts 199°
2026-05-08 18:40 38.50770 -71.55364 31349 ft 397 kts 214°
2026-05-08 18:40 38.45603 -71.58103 31339 ft 407 kts 214°
2026-05-08 18:41 38.40309 -71.60883 31342 ft 415 kts 213°
2026-05-08 18:41 38.34936 -71.63662 31345 ft 424 kts 213°
2026-05-08 18:42 38.29385 -71.66515 31442 ft 428 kts 213°
2026-05-08 18:42 38.26650 -71.67913 31559 ft 428 kts 214°
2026-05-08 18:42 38.23887 -71.69325 31680 ft 427 kts 214°
2026-05-08 18:43 38.21131 -71.70735 31804 ft 427 kts 214°
2026-05-08 18:43 38.18380 -71.72144 31927 ft 426 kts 214°
2026-05-08 18:43 38.15628 -71.73554 32057 ft 425 kts 214°
2026-05-08 18:43 38.12883 -71.74960 32116 ft 425 kts 214°
2026-05-08 18:44 38.10145 -71.76358 32244 ft 424 kts 214°
2026-05-08 18:44 38.07406 -71.77755 32369 ft 423 kts 214°
2026-05-08 18:44 38.04671 -71.79150 32501 ft 423 kts 214°
2026-05-08 18:44 38.01943 -71.80541 32626 ft 422 kts 215°
2026-05-08 18:45 37.99217 -71.81930 32750 ft 421 kts 215°
2026-05-08 18:45 37.96533 -71.83299 32879 ft 421 kts 215°
2026-05-08 18:45 37.93812 -71.84685 33011 ft 420 kts 215°
2026-05-08 18:45 37.91097 -71.86068 33085 ft 420 kts 215°
2026-05-08 18:46 37.88389 -71.87446 33217 ft 419 kts 215°
2026-05-08 18:46 37.85680 -71.88823 33349 ft 419 kts 215°
2026-05-08 18:46 37.82974 -71.90199 33481 ft 418 kts 215°
2026-05-08 18:46 37.80275 -71.91570 33629 ft 418 kts 216°
2026-05-08 18:47 37.77574 -71.92941 33760 ft 418 kts 216°
2026-05-08 18:47 37.74874 -71.94310 33893 ft 418 kts 216°
2026-05-08 18:47 37.72178 -71.95677 34025 ft 418 kts 216°
2026-05-08 18:47 37.69474 -71.97045 34081 ft 418 kts 216°
2026-05-08 18:48 37.66816 -71.98400 34194 ft 416 kts 217°
2026-05-08 18:48 37.64169 -71.99868 34309 ft 413 kts 218°
2026-05-08 18:48 37.61564 -72.01391 34429 ft 412 kts 218°
2026-05-08 18:48 37.58969 -72.02932 34543 ft 412 kts 218°
2026-05-08 18:49 37.56371 -72.04476 34653 ft 413 kts 218°
2026-05-08 18:49 37.53771 -72.06011 34771 ft 413 kts 218°
2026-05-08 18:49 37.51164 -72.07541 34887 ft 413 kts 218°
2026-05-08 18:49 37.48546 -72.09070 34965 ft 414 kts 218°
2026-05-08 18:50 37.45934 -72.10591 35082 ft 414 kts 218°
2026-05-08 18:50 37.43318 -72.12110 35203 ft 414 kts 218°
2026-05-08 18:50 37.40699 -72.13631 35321 ft 414 kts 218°
2026-05-08 18:50 37.38080 -72.15151 35441 ft 415 kts 218°
2026-05-08 18:51 37.35491 -72.16652 35558 ft 415 kts 218°
2026-05-08 18:51 37.32877 -72.18168 35676 ft 414 kts 218°
2026-05-08 18:51 37.30252 -72.19689 35796 ft 414 kts 218°
2026-05-08 18:51 37.27633 -72.21205 35854 ft 414 kts 218°
2026-05-08 18:52 37.25020 -72.22716 35976 ft 413 kts 218°
2026-05-08 18:52 37.22409 -72.24223 36094 ft 413 kts 218°
2026-05-08 18:52 37.19795 -72.25731 36233 ft 413 kts 218°
2026-05-08 18:52 37.17183 -72.27237 36356 ft 412 kts 218°
2026-05-08 18:53 37.14577 -72.28739 36478 ft 412 kts 218°
2026-05-08 18:53 37.11972 -72.30241 36597 ft 412 kts 218°
2026-05-08 18:53 37.09400 -72.31724 36725 ft 411 kts 218°
2026-05-08 18:53 37.06799 -72.33221 36850 ft 411 kts 218°
2026-05-08 18:54 37.04197 -72.34720 36976 ft 410 kts 218°
2026-05-08 18:54 37.01597 -72.36217 37043 ft 412 kts 218°
2026-05-08 18:54 36.96370 -72.39223 37053 ft 413 kts 218°
2026-05-08 18:55 36.88585 -72.43686 37060 ft 411 kts 218°
2026-05-08 18:56 36.83731 -72.46465 37054 ft 409 kts 218°
2026-05-08 18:56 36.78557 -72.49427 37057 ft 408 kts 218°
2026-05-08 18:57 36.73332 -72.52280 37045 ft 420 kts 210°
2026-05-08 18:57 36.71411 -72.52835 37056 ft 436 kts 202°
2026-05-08 18:57 36.67252 -72.53092 37051 ft 462 kts 189°
2026-05-08 18:57 36.64011 -72.52412 36984 ft 481 kts 180°
2026-05-08 18:58 36.60760 -72.51359 37058 ft 484 kts 178°
2026-05-08 18:58 36.54252 -72.49081 37058 ft 486 kts 178°
2026-05-08 18:59 36.47767 -72.46870 37055 ft 487 kts 179°
2026-05-08 18:59 36.41215 -72.44723 37057 ft 488 kts 179°
2026-05-08 19:00 36.35708 -72.42940 37052 ft 488 kts 179°
2026-05-08 19:00 36.28044 -72.40461 37056 ft 490 kts 179°
2026-05-08 19:01 36.21433 -72.38322 37059 ft 491 kts 179°
2026-05-08 19:01 36.15935 -72.36545 37054 ft 491 kts 179°
2026-05-08 19:02 36.09317 -72.34410 37049 ft 491 kts 180°
2026-05-08 19:02 36.02705 -72.32662 37051 ft 471 kts 191°
2026-05-08 19:02 35.99494 -72.32593 37068 ft 457 kts 196°
2026-05-08 19:03 35.96318 -72.32676 37059 ft 457 kts 197°
2026-05-08 19:03 35.89946 -72.32853 37009 ft 458 kts 197°
2026-05-08 19:04 35.83562 -72.32981 37050 ft 459 kts 196°
2026-05-08 19:04 35.77157 -72.33077 37062 ft 460 kts 196°
2026-05-08 19:05 35.70782 -72.33164 37059 ft 461 kts 196°
2026-05-08 19:05 35.64355 -72.33251 36997 ft 461 kts 196°
2026-05-08 19:06 35.57939 -72.33339 37056 ft 461 kts 197°
2026-05-08 19:06 35.51512 -72.33431 37062 ft 462 kts 197°
2026-05-08 19:07 35.45079 -72.33522 37063 ft 463 kts 196°
2026-05-08 19:07 35.38674 -72.33611 37057 ft 463 kts 197°
2026-05-08 19:08 35.32223 -72.33701 37055 ft 463 kts 197°
2026-05-08 19:08 35.25763 -72.33792 37059 ft 464 kts 196°
2026-05-08 19:09 35.19299 -72.33882 37057 ft 465 kts 196°
2026-05-08 19:09 35.12839 -72.33971 37050 ft 464 kts 196°
2026-05-08 19:10 35.06374 -72.34063 37053 ft 465 kts 196°
2026-05-08 19:10 34.99906 -72.34154 37060 ft 465 kts 196°
2026-05-08 19:11 34.93516 -72.34564 37011 ft 451 kts 203°
2026-05-08 19:11 34.87391 -72.35660 37045 ft 447 kts 204°
2026-05-08 19:12 34.81211 -72.36758 37052 ft 450 kts 204°
2026-05-08 19:12 34.74989 -72.37778 37051 ft 451 kts 203°
2026-05-08 19:12 34.71834 -72.38144 37050 ft 464 kts 196°
2026-05-08 19:13 34.68541 -72.37965 37061 ft 479 kts 190°
2026-05-08 19:13 34.61865 -72.37167 37053 ft 482 kts 189°
2026-05-08 19:14 34.55191 -72.36346 37047 ft 481 kts 189°
2026-05-08 19:14 34.48526 -72.35594 37042 ft 481 kts 190°
2026-05-08 19:15 34.41866 -72.34876 37006 ft 480 kts 190°
2026-05-08 19:15 34.35220 -72.34163 37039 ft 479 kts 190°
2026-05-08 19:16 34.28570 -72.33451 37052 ft 480 kts 190°
2026-05-08 19:16 34.21955 -72.32741 37047 ft 481 kts 189°
2026-05-08 19:17 34.15287 -72.32025 37045 ft 481 kts 189°
2026-05-08 19:17 34.08618 -72.31311 37040 ft 481 kts 189°
2026-05-08 19:18 34.01939 -72.30597 37044 ft 482 kts 189°
2026-05-08 19:18 33.95224 -72.29585 37043 ft 496 kts 182°
2026-05-08 19:19 33.88446 -72.27694 37043 ft 500 kts 180°
2026-05-08 19:19 33.81723 -72.25711 37035 ft 500 kts 180°
2026-05-08 19:20 33.74954 -72.23795 37036 ft 499 kts 180°
2026-05-08 19:20 33.68188 -72.21938 36977 ft 498 kts 180°
2026-05-08 19:21 33.61446 -72.20101 37038 ft 496 kts 180°
2026-05-08 19:21 33.54704 -72.18266 37043 ft 496 kts 180°
2026-05-08 19:22 33.47959 -72.16429 37034 ft 497 kts 180°
2026-05-08 19:22 33.41220 -72.14595 36995 ft 497 kts 180°
2026-05-08 19:23 33.34528 -72.12776 37026 ft 496 kts 180°
2026-05-08 19:23 33.27784 -72.10947 37032 ft 496 kts 180°
2026-05-08 19:24 33.21040 -72.09122 37031 ft 497 kts 180°
2026-05-08 19:24 33.14284 -72.07296 36973 ft 497 kts 180°
2026-05-08 19:25 33.07543 -72.05476 37023 ft 497 kts 180°
2026-05-08 19:25 33.00793 -72.03657 37031 ft 497 kts 180°
2026-05-08 19:26 32.94082 -72.01848 37030 ft 498 kts 180°
2026-05-08 19:26 32.87306 -72.00026 37000 ft 498 kts 180°
2026-05-08 19:27 32.80534 -71.98207 37014 ft 498 kts 180°
2026-05-08 19:27 32.73810 -71.96406 37021 ft 498 kts 180°
2026-05-08 19:28 32.67042 -71.94595 37023 ft 499 kts 180°
2026-05-08 19:28 32.60270 -71.92786 36983 ft 499 kts 180°
2026-05-08 19:29 32.53493 -71.90978 37014 ft 498 kts 180°
2026-05-08 19:29 32.46755 -71.89186 37021 ft 498 kts 179°
2026-05-08 19:30 32.39982 -71.87384 37015 ft 499 kts 179°
2026-05-08 19:30 32.33207 -71.85586 36980 ft 499 kts 179°
2026-05-08 19:31 32.26440 -71.83791 37007 ft 498 kts 179°
2026-05-08 19:31 32.19674 -71.82002 37014 ft 498 kts 179°
2026-05-08 19:32 32.12902 -71.80213 37015 ft 498 kts 179°
2026-05-08 19:32 32.06170 -71.78438 37013 ft 498 kts 179°
2026-05-08 19:33 31.99398 -71.76653 37014 ft 498 kts 179°
2026-05-08 19:33 31.92624 -71.74870 37014 ft 498 kts 179°
2026-05-08 19:34 31.85896 -71.73103 37012 ft 498 kts 179°
2026-05-08 19:34 31.79142 -71.71332 36990 ft 497 kts 179°
2026-05-08 19:35 31.72388 -71.69564 37003 ft 497 kts 179°
2026-05-08 19:35 31.65638 -71.67801 37012 ft 497 kts 179°
2026-05-08 19:36 31.58882 -71.66039 37005 ft 497 kts 179°
2026-05-08 19:36 31.52133 -71.64281 36967 ft 496 kts 179°
2026-05-08 19:37 31.45438 -71.62538 37002 ft 496 kts 179°
2026-05-08 19:37 31.38700 -71.60789 37010 ft 496 kts 179°
2026-05-08 19:38 31.31957 -71.59041 37007 ft 497 kts 179°
2026-05-08 19:38 31.25189 -71.57289 36985 ft 497 kts 178°
2026-05-08 19:39 31.18431 -71.55540 36994 ft 497 kts 178°
2026-05-08 19:39 31.11709 -71.53804 37005 ft 498 kts 178°
2026-05-08 19:40 31.04928 -71.52056 37015 ft 498 kts 178°
2026-05-08 19:40 30.98140 -71.50308 36973 ft 499 kts 178°
2026-05-08 19:41 30.91352 -71.48561 37005 ft 499 kts 178°
2026-05-08 19:41 30.84560 -71.46818 37010 ft 500 kts 178°
2026-05-08 19:42 30.77767 -71.45077 37008 ft 500 kts 178°
2026-05-08 19:42 30.71014 -71.43348 36970 ft 500 kts 177°
2026-05-08 19:43 30.64225 -71.41611 37005 ft 499 kts 177°
2026-05-08 19:43 30.57434 -71.39878 37010 ft 500 kts 177°
2026-05-08 19:44 30.50639 -71.38147 37012 ft 500 kts 177°
2026-05-08 19:44 30.43841 -71.36417 37013 ft 500 kts 177°
2026-05-08 19:45 30.37039 -71.34688 37013 ft 500 kts 176°
2026-05-08 19:45 30.30279 -71.32972 37015 ft 500 kts 176°
2026-05-08 19:46 30.23469 -71.31246 37019 ft 500 kts 176°
2026-05-08 19:46 30.13253 -71.28661 36993 ft 500 kts 176°
2026-05-08 19:47 30.06443 -71.26941 37008 ft 500 kts 176°
2026-05-08 19:47 29.99638 -71.25225 37022 ft 500 kts 176°
2026-05-08 19:48 29.92880 -71.23524 37020 ft 501 kts 176°
2026-05-08 19:48 29.86073 -71.21812 36998 ft 501 kts 175°
2026-05-08 19:49 29.79268 -71.20102 37016 ft 501 kts 175°
2026-05-08 19:49 29.72458 -71.18395 37023 ft 501 kts 175°
2026-05-08 19:50 29.66755 -71.16967 37022 ft 501 kts 175°
2026-05-08 19:50 29.59979 -71.15272 37022 ft 501 kts 175°
2026-05-08 19:51 29.53164 -71.13569 37021 ft 500 kts 175°
2026-05-08 19:51 29.46349 -71.11869 37024 ft 500 kts 175°
2026-05-08 19:52 29.39540 -71.10173 37016 ft 501 kts 175°
2026-05-08 19:52 29.32733 -71.08480 37021 ft 501 kts 175°
2026-05-08 19:53 29.25966 -71.06799 37017 ft 501 kts 175°
2026-05-08 19:53 29.19154 -71.05109 37015 ft 501 kts 175°
2026-05-08 19:54 29.12338 -71.03421 37027 ft 501 kts 175°
2026-05-08 19:54 29.05530 -71.01736 37028 ft 500 kts 175°
2026-05-08 19:55 28.98723 -71.00055 37013 ft 500 kts 175°
2026-05-08 19:55 28.91921 -70.98378 37021 ft 500 kts 175°
2026-05-08 19:56 28.85114 -70.96701 37026 ft 500 kts 175°
2026-05-08 19:56 28.78311 -70.95025 37027 ft 500 kts 175°
2026-05-08 19:57 28.71498 -70.93348 37005 ft 500 kts 174°
2026-05-08 19:57 28.64697 -70.91678 37025 ft 500 kts 174°
2026-05-08 19:58 28.57932 -70.90020 37028 ft 500 kts 174°
2026-05-08 19:58 28.51125 -70.88354 37030 ft 500 kts 174°
2026-05-08 19:59 28.44318 -70.86691 37031 ft 500 kts 174°
2026-05-08 19:59 28.37519 -70.85030 37023 ft 499 kts 174°
2026-05-08 20:00 28.30718 -70.83372 37030 ft 499 kts 174°
2026-05-08 20:00 28.23927 -70.81718 37033 ft 499 kts 174°
2026-05-08 20:01 28.17169 -70.80076 37031 ft 499 kts 174°
2026-05-08 20:01 28.10381 -70.78427 37035 ft 498 kts 173°
2026-05-08 20:02 28.03592 -70.76780 37029 ft 498 kts 173°
2026-05-08 20:02 27.96814 -70.75138 37033 ft 498 kts 173°
2026-05-08 20:03 27.90033 -70.73498 37036 ft 498 kts 173°
2026-05-08 20:03 27.83262 -70.71862 37023 ft 497 kts 173°
2026-05-08 20:04 27.76531 -70.70238 37033 ft 497 kts 173°
2026-05-08 20:04 27.69771 -70.68609 37036 ft 497 kts 173°
2026-05-08 20:05 27.62994 -70.66978 37035 ft 497 kts 173°
2026-05-08 20:05 27.56231 -70.65352 37013 ft 497 kts 173°
2026-05-08 20:06 27.49468 -70.63728 37036 ft 496 kts 173°
2026-05-08 20:06 27.42706 -70.62107 37043 ft 496 kts 173°
2026-05-08 20:07 27.35992 -70.60499 37039 ft 496 kts 173°
2026-05-08 20:07 27.29236 -70.58884 37042 ft 496 kts 173°
2026-05-08 20:08 27.22466 -70.57266 37040 ft 496 kts 172°
2026-05-08 20:08 27.15700 -70.55652 37044 ft 496 kts 172°
2026-05-08 20:09 27.08942 -70.54042 37043 ft 497 kts 172°
2026-05-08 20:09 27.02185 -70.52433 37044 ft 496 kts 172°
2026-05-08 20:10 26.95432 -70.50828 37033 ft 496 kts 172°
2026-05-08 20:10 26.88684 -70.49226 37044 ft 495 kts 172°
2026-05-08 20:11 26.81940 -70.47627 37044 ft 495 kts 172°
2026-05-08 20:11 26.75228 -70.46037 37048 ft 495 kts 172°
2026-05-08 20:12 26.68473 -70.44440 37043 ft 495 kts 172°
2026-05-08 20:12 26.61732 -70.42847 37037 ft 495 kts 172°
2026-05-08 20:13 26.54987 -70.41255 37044 ft 495 kts 172°
2026-05-08 20:13 26.48225 -70.39661 37044 ft 496 kts 172°
2026-05-08 20:14 26.41471 -70.38072 37047 ft 496 kts 172°
2026-05-08 20:14 26.34718 -70.36484 37047 ft 496 kts 172°
2026-05-08 20:15 26.28001 -70.34906 37045 ft 496 kts 172°
2026-05-08 20:15 26.21240 -70.33320 37047 ft 497 kts 172°
2026-05-08 20:16 26.14471 -70.31735 37047 ft 497 kts 172°
2026-05-08 20:16 26.07706 -70.30152 37040 ft 497 kts 172°
2026-05-08 20:17 26.00945 -70.28571 37047 ft 496 kts 172°
2026-05-08 20:17 25.94182 -70.26992 37047 ft 496 kts 172°
2026-05-08 20:18 25.87420 -70.25415 37048 ft 496 kts 172°
2026-05-08 20:18 25.80667 -70.23842 37050 ft 496 kts 172°
2026-05-08 20:19 25.73910 -70.22271 37043 ft 495 kts 171°
2026-05-08 20:19 25.67164 -70.20703 37047 ft 495 kts 171°
2026-05-08 20:20 25.60458 -70.19147 37050 ft 495 kts 171°
2026-05-08 20:20 25.53720 -70.17584 37043 ft 494 kts 171°
2026-05-08 20:21 25.46986 -70.16025 37039 ft 494 kts 171°
2026-05-08 20:21 25.40265 -70.14471 37046 ft 493 kts 171°
2026-05-08 20:22 25.33552 -70.12920 37045 ft 493 kts 171°
2026-05-08 20:22 25.27977 -70.11634 37046 ft 492 kts 171°
2026-05-08 20:23 25.20137 -70.09827 37046 ft 492 kts 171°
2026-05-08 20:23 25.13472 -70.08293 37047 ft 491 kts 171°
2026-05-08 20:24 25.06776 -70.06754 37045 ft 491 kts 171°
2026-05-08 20:24 25.00084 -70.05245 37044 ft 490 kts 173°
2026-05-08 20:25 24.93323 -70.04713 37048 ft 486 kts 181°
2026-05-08 20:25 24.86558 -70.04501 37045 ft 486 kts 181°
2026-05-08 20:26 24.79845 -70.04253 37045 ft 486 kts 181°
2026-05-08 20:26 24.73044 -70.03950 37045 ft 486 kts 180°
2026-05-08 20:27 24.66315 -70.03635 37042 ft 486 kts 180°
2026-05-08 20:27 24.59543 -70.03318 37044 ft 487 kts 180°
2026-05-08 20:28 24.52781 -70.03006 37041 ft 486 kts 180°
2026-05-08 20:28 24.46005 -70.02694 37043 ft 487 kts 180°
2026-05-08 20:29 24.39230 -70.02383 37043 ft 487 kts 180°
2026-05-08 20:29 24.32500 -70.02074 37043 ft 487 kts 180°
2026-05-08 20:30 24.25724 -70.01764 37039 ft 487 kts 180°
2026-05-08 20:30 24.18948 -70.01454 37044 ft 486 kts 180°
2026-05-08 20:31 24.12180 -70.01312 37040 ft 485 kts 183°
2026-05-08 20:31 24.05425 -70.01434 37041 ft 485 kts 184°
2026-05-08 20:32 23.98670 -70.01569 37041 ft 485 kts 184°
2026-05-08 20:32 23.91916 -70.01664 37040 ft 485 kts 183°
2026-05-08 20:33 23.85215 -70.01736 37040 ft 485 kts 183°
2026-05-08 20:33 23.78447 -70.01804 37040 ft 485 kts 183°
2026-05-08 20:34 23.71699 -70.01873 37037 ft 485 kts 183°
2026-05-08 20:35 23.62699 -70.01967 37035 ft 485 kts 183°
2026-05-08 20:35 23.54859 -70.02049 37034 ft 485 kts 183°
2026-05-08 20:36 23.49185 -70.02109 36784 ft 488 kts 183°
2026-05-08 20:36 23.45837 -70.02144 36535 ft 486 kts 182°
2026-05-08 20:36 23.42463 -70.02179 36290 ft 484 kts 182°
2026-05-08 20:36 23.39099 -70.02213 36053 ft 484 kts 182°
2026-05-08 20:37 23.35735 -70.02248 35812 ft 483 kts 182°
2026-05-08 20:37 23.32375 -70.02284 35577 ft 483 kts 182°
2026-05-08 20:37 23.29012 -70.02319 35337 ft 483 kts 182°
2026-05-08 20:37 23.25647 -70.02354 35117 ft 483 kts 182°
2026-05-08 20:38 23.22285 -70.02389 34881 ft 483 kts 182°
2026-05-08 20:38 23.18923 -70.02424 34660 ft 483 kts 182°
2026-05-08 20:38 23.15559 -70.02459 34431 ft 483 kts 182°
2026-05-08 20:38 23.12193 -70.02494 34207 ft 483 kts 182°
2026-05-08 20:39 23.08830 -70.02529 33956 ft 484 kts 182°
2026-05-08 20:39 23.05439 -70.02565 33556 ft 487 kts 182°
2026-05-08 20:39 23.02035 -70.02601 33181 ft 490 kts 182°
2026-05-08 20:39 22.98663 -70.02636 32816 ft 492 kts 182°
2026-05-08 20:40 22.95227 -70.02672 32446 ft 493 kts 182°
2026-05-08 20:40 22.91793 -70.02707 32079 ft 494 kts 182°
2026-05-08 20:40 22.88349 -70.02743 31719 ft 495 kts 182°
2026-05-08 20:40 22.84900 -70.02779 31364 ft 496 kts 182°
2026-05-08 20:41 22.81452 -70.02814 31071 ft 496 kts 182°
2026-05-08 20:41 22.74547 -70.02886 31033 ft 497 kts 181°
2026-05-08 20:42 22.67623 -70.02957 31026 ft 498 kts 181°
2026-05-08 20:42 22.60694 -70.03028 31027 ft 497 kts 181°
2026-05-08 20:43 22.53810 -70.03099 31027 ft 497 kts 181°
2026-05-08 20:43 22.46875 -70.03171 31030 ft 497 kts 181°
2026-05-08 20:44 22.39945 -70.03242 31029 ft 497 kts 181°
2026-05-08 20:44 22.33020 -70.03313 31032 ft 498 kts 181°
2026-05-08 20:45 22.26134 -70.03384 31026 ft 498 kts 181°
2026-05-08 20:45 22.19210 -70.03455 31023 ft 498 kts 181°
2026-05-08 20:46 22.12273 -70.03526 31020 ft 498 kts 181°
2026-05-08 20:46 22.05350 -70.03596 31024 ft 498 kts 181°
2026-05-08 20:47 21.98421 -70.03667 31020 ft 498 kts 181°
2026-05-08 20:47 21.91488 -70.03738 31022 ft 498 kts 181°
2026-05-08 20:48 21.84557 -70.03809 31021 ft 498 kts 181°
2026-05-08 20:48 21.77621 -70.03879 31021 ft 498 kts 181°
2026-05-08 20:49 21.70725 -70.03950 31016 ft 498 kts 181°
2026-05-08 20:49 21.63791 -70.04020 31018 ft 498 kts 181°
2026-05-08 20:50 21.56850 -70.04091 31017 ft 498 kts 181°
2026-05-08 20:50 21.49920 -70.04161 31015 ft 498 kts 181°
2026-05-08 20:51 21.42986 -70.04231 31013 ft 498 kts 181°
2026-05-08 20:51 21.36047 -70.04302 31013 ft 499 kts 181°
2026-05-08 20:52 21.29106 -70.04372 31011 ft 499 kts 181°
2026-05-08 20:52 21.22168 -70.04442 31007 ft 499 kts 180°
2026-05-08 20:53 21.15227 -70.04512 31009 ft 499 kts 180°
2026-05-08 20:53 21.08333 -70.04582 31007 ft 499 kts 180°
2026-05-08 20:54 21.01387 -70.04652 31007 ft 499 kts 181°
2026-05-08 20:54 20.94433 -70.04722 31004 ft 499 kts 181°
2026-05-08 20:55 20.87488 -70.04792 31000 ft 499 kts 180°
2026-05-08 20:55 20.80534 -70.04862 31003 ft 500 kts 180°
2026-05-08 20:56 20.73571 -70.04932 31003 ft 500 kts 180°
2026-05-08 20:56 20.66607 -70.05003 31000 ft 501 kts 180°
2026-05-08 20:57 20.59634 -70.05073 31000 ft 501 kts 180°
2026-05-08 20:57 20.52708 -70.05142 30997 ft 501 kts 180°
2026-05-08 20:58 20.45739 -70.05213 30996 ft 501 kts 180°
2026-05-08 20:58 20.38768 -70.05283 30997 ft 501 kts 180°
2026-05-08 20:59 20.31800 -70.05354 30992 ft 501 kts 180°
2026-05-08 20:59 20.24820 -70.05425 30992 ft 501 kts 180°
2026-05-08 21:00 20.17876 -70.05044 30991 ft 500 kts 168°
2026-05-08 21:00 20.11300 -70.02745 31001 ft 498 kts 154°
2026-05-08 21:01 20.04992 -69.99673 30987 ft 498 kts 154°
2026-05-08 21:01 19.98672 -69.96622 30988 ft 498 kts 155°
2026-05-08 21:02 19.92337 -69.93623 30985 ft 498 kts 155°
2026-05-08 21:02 19.86029 -69.90660 30988 ft 499 kts 155°
2026-05-08 21:03 19.79677 -69.87679 30990 ft 498 kts 155°
2026-05-08 21:03 19.73330 -69.84698 30990 ft 498 kts 155°
2026-05-08 21:04 19.66988 -69.81722 30985 ft 498 kts 155°
2026-05-08 21:04 19.60646 -69.78749 30988 ft 498 kts 155°
2026-05-08 21:05 19.54303 -69.75778 30978 ft 498 kts 155°
2026-05-08 21:05 19.47962 -69.72810 30977 ft 498 kts 155°
2026-05-08 21:06 19.41344 -69.70620 30980 ft 499 kts 167°
2026-05-08 21:06 19.34537 -69.69152 30966 ft 500 kts 168°
2026-05-08 21:07 19.27754 -69.67697 30965 ft 500 kts 167°
2026-05-08 21:07 19.20938 -69.66185 30965 ft 500 kts 167°
2026-05-08 21:08 19.14136 -69.64651 30973 ft 500 kts 167°
2026-05-08 21:08 19.07332 -69.63113 30975 ft 500 kts 167°
2026-05-08 21:09 19.00517 -69.61577 30974 ft 500 kts 167°
2026-05-08 21:09 18.93704 -69.60045 30977 ft 501 kts 167°
2026-05-08 21:10 18.86887 -69.58513 30978 ft 500 kts 167°
2026-05-08 21:10 18.80071 -69.56983 30974 ft 500 kts 167°
2026-05-08 21:11 18.73251 -69.55453 30978 ft 500 kts 167°
2026-05-08 21:11 18.66445 -69.53927 30982 ft 500 kts 167°
2026-05-08 21:12 18.59677 -69.52411 30989 ft 500 kts 167°
2026-05-08 21:12 18.52868 -69.50887 30990 ft 500 kts 167°
2026-05-08 21:13 18.46051 -69.49363 30988 ft 500 kts 167°
2026-05-08 21:13 18.39382 -69.47874 30971 ft 472 kts 167°
2026-05-08 21:13 18.36207 -69.47166 30900 ft 459 kts 167°
2026-05-08 21:14 18.33159 -69.46486 30759 ft 448 kts 167°
2026-05-08 21:14 18.30133 -69.45810 30350 ft 445 kts 166°
2026-05-08 21:14 18.27112 -69.45135 29858 ft 440 kts 166°
2026-05-08 21:14 18.24134 -69.44471 29332 ft 433 kts 166°
2026-05-08 21:15 18.21206 -69.43818 28802 ft 426 kts 166°
2026-05-08 21:15 18.18322 -69.43175 28290 ft 420 kts 166°
2026-05-08 21:15 18.15483 -69.42542 27789 ft 415 kts 167°
2026-05-08 21:15 18.12666 -69.41834 27298 ft 417 kts 158°
2026-05-08 21:16 18.10110 -69.40397 26812 ft 418 kts 140°
2026-05-08 21:16 18.08137 -69.38220 26359 ft 418 kts 121°
2026-05-08 21:16 18.06897 -69.35483 25893 ft 413 kts 103°
2026-05-08 21:16 18.06550 -69.32543 25426 ft 401 kts 85°
2026-05-08 21:17 18.06869 -69.29673 24978 ft 391 kts 75°
2026-05-08 21:17 18.07885 -69.27069 24511 ft 382 kts 55°
2026-05-08 21:17 18.09639 -69.25045 24076 ft 372 kts 35°
2026-05-08 21:17 18.11914 -69.23815 23637 ft 365 kts 15°
2026-05-08 21:18 18.14424 -69.23522 23150 ft 365 kts 355°
2026-05-08 21:18 18.16897 -69.24123 22662 ft 365 kts 341°
2026-05-08 21:18 18.19270 -69.25082 22168 ft 366 kts 339°
2026-05-08 21:18 18.21621 -69.26118 21672 ft 366 kts 338°
2026-05-08 21:19 18.23922 -69.27158 21182 ft 361 kts 338°
2026-05-08 21:19 18.26221 -69.28210 20594 ft 360 kts 338°
2026-05-08 21:19 18.28506 -69.29268 20011 ft 358 kts 338°
2026-05-08 21:19 18.30776 -69.30330 19442 ft 356 kts 338°
2026-05-08 21:20 18.33029 -69.31397 18877 ft 354 kts 338°
2026-05-08 21:20 18.35268 -69.32466 18332 ft 352 kts 338°
2026-05-08 21:20 18.37493 -69.33537 17701 ft 350 kts 338°
2026-05-08 21:20 18.39701 -69.34602 17076 ft 348 kts 338°
2026-05-08 21:21 18.41902 -69.35665 16460 ft 346 kts 338°
2026-05-08 21:21 18.44088 -69.36720 15861 ft 344 kts 337°
2026-05-08 21:21 18.46262 -69.37767 15274 ft 343 kts 338°
2026-05-08 21:21 18.48421 -69.38806 14695 ft 339 kts 337°
2026-05-08 21:22 18.49837 -69.39487 14315 ft 337 kts 337°
2026-05-08 21:22 18.51931 -69.40493 14078 ft 323 kts 337°
2026-05-08 21:22 18.53936 -69.41459 13836 ft 311 kts 338°
2026-05-08 21:22 18.55894 -69.42403 13259 ft 310 kts 337°
2026-05-08 21:23 18.57868 -69.43352 12650 ft 311 kts 338°
2026-05-08 21:23 18.59837 -69.44298 12041 ft 311 kts 338°
2026-05-08 21:23 18.61781 -69.45229 11452 ft 311 kts 337°
2026-05-08 21:23 18.63753 -69.46169 10867 ft 311 kts 338°
2026-05-08 21:24 18.65725 -69.47101 10286 ft 310 kts 337°
2026-05-08 21:24 18.67693 -69.48024 9698 ft 309 kts 337°
2026-05-08 21:24 18.69654 -69.48938 9073 ft 308 kts 338°
2026-05-08 21:24 18.71608 -69.49850 8517 ft 305 kts 338°
2026-05-08 21:25 18.73396 -69.51018 8001 ft 304 kts 317°
2026-05-08 21:25 18.74562 -69.52852 7523 ft 304 kts 292°
2026-05-08 21:25 18.74883 -69.55042 7055 ft 303 kts 266°
2026-05-08 21:25 18.74552 -69.57223 6613 ft 300 kts 258°
2026-05-08 21:26 18.74104 -69.59363 6140 ft 297 kts 258°
2026-05-08 21:26 18.73649 -69.61469 5736 ft 291 kts 257°
2026-05-08 21:26 18.73203 -69.63530 5374 ft 285 kts 257°
2026-05-08 21:26 18.72772 -69.65553 5012 ft 280 kts 258°
2026-05-08 21:27 18.72354 -69.67542 4638 ft 275 kts 257°
2026-05-08 21:27 18.71949 -69.69504 4264 ft 272 kts 258°
2026-05-08 21:27 18.71561 -69.71417 3899 ft 268 kts 257°
2026-05-08 21:27 18.71181 -69.73330 3520 ft 265 kts 257°
2026-05-08 21:28 18.70697 -69.75184 3155 ft 260 kts 242°
2026-05-08 21:28 18.69544 -69.76566 2986 ft 243 kts 208°
2026-05-08 21:28 18.68035 -69.77048 2983 ft 217 kts 176°
2026-05-08 21:28 18.66653 -69.76705 2990 ft 192 kts 156°
2026-05-08 21:29 18.65431 -69.76205 2959 ft 185 kts 152°
2026-05-08 21:29 18.64372 -69.75443 3014 ft 188 kts 136°
2026-05-08 21:29 18.63365 -69.74548 2987 ft 189 kts 139°
2026-05-08 21:29 18.62177 -69.74011 3007 ft 184 kts 160°
2026-05-08 21:30 18.60981 -69.73656 2990 ft 173 kts 159°
2026-05-08 21:30 18.59844 -69.73328 2974 ft 164 kts 160°
2026-05-08 21:30 18.58769 -69.72992 2966 ft 160 kts 158°
2026-05-08 21:30 18.57730 -69.72604 2982 ft 158 kts 156°
2026-05-08 21:31 18.56694 -69.72237 2844 ft 160 kts 158°
2026-05-08 21:31 18.55631 -69.71826 2568 ft 162 kts 157°
2026-05-08 21:31 18.54584 -69.71413 2289 ft 159 kts 157°
2026-05-08 21:31 18.53585 -69.71005 1994 ft 153 kts 153°
2026-05-08 21:32 18.52655 -69.70557 1764 ft 140 kts 153°
2026-05-08 21:32 18.51776 -69.70169 1444 ft 134 kts 155°
2026-05-08 21:32 18.50916 -69.69802 1268 ft 136 kts 155°
2026-05-08 21:32 18.50015 -69.69425 1252 ft 140 kts 158°
2026-05-08 21:33 18.49092 -69.69097 1244 ft 143 kts 161°
2026-05-08 21:33 18.48157 -69.68786 1147 ft 140 kts 160°
2026-05-08 21:33 18.47224 -69.68476 866 ft 141 kts 159°
2026-05-08 21:33 18.46305 -69.68125 645 ft 139 kts 158°
2026-05-08 21:34 18.45399 -69.67799 401 ft 136 kts 159°
2026-05-08 21:34 18.44509 -69.67458 171 ft 135 kts 158°
2026-05-08 21:34 18.43682 -69.67147 72 ft 113 kts 159°
2026-05-08 21:34 18.43037 -69.66915 67 ft 78 kts 161°
2026-05-08 21:35 18.42674 -69.66782 65 ft 46 kts 161°
2026-05-08 21:35 18.42424 -69.66690 66 ft 23 kts 160°
2026-05-08 21:35 18.42277 -69.66644 66 ft 16 kts 178°
2026-05-08 21:35 18.42225 -69.66680 65 ft 9 kts 246°
2026-05-08 21:36 18.42230 -69.66754 60 ft 12 kts 294°
2026-05-08 21:36 18.42279 -69.66829 65 ft 13 kts 320°
2026-05-08 21:36 18.42359 -69.66867 66 ft 12 kts 342°
2026-05-08 21:36 18.42440 -69.66894 62 ft 12 kts 342°
2026-05-08 21:37 18.42518 -69.66923 64 ft 12 kts 338°
2026-05-08 21:37 18.42593 -69.66955 65 ft 11 kts 339°
2026-05-08 21:37 18.42667 -69.66985 67 ft 11 kts 339°
2026-05-08 21:37 18.42739 -69.67013 66 ft 11 kts 340°
2026-05-08 21:38 18.42809 -69.67039 67 ft 11 kts 344°
2026-05-08 21:38 18.42879 -69.67058 65 ft 10 kts 345°
2026-05-08 21:38 18.42936 -69.67095 65 ft 10 kts 297°
2026-05-08 21:38 18.42953 -69.67179 64 ft 14 kts 276°
2026-05-08 21:39 18.42964 -69.67290 60 ft 16 kts 275°
2026-05-08 21:39 18.42992 -69.67386 58 ft 13 kts 308°
2026-05-08 21:39 18.43063 -69.67436 60 ft 11 kts 339°
2026-05-08 21:39 18.43133 -69.67465 55 ft 11 kts 339°
2026-05-08 21:40 18.43201 -69.67493 58 ft 10 kts 339°
2026-05-08 21:40 18.43264 -69.67528 62 ft 10 kts 313°
2026-05-08 21:40 18.43296 -69.67590 63 ft 6 kts 289°
2026-05-08 21:41 18.43255 -69.67645 67 ft 2 kts 217°
2026-05-08 21:41 18.43252 -69.67647 67 ft 0 kts 217°